This is the latest recevied weather packets stored in our database for station/object PU5FJO-13. If no packets are shown the sender has not sent any weather packets the latest 10 day(s).
| Time | Temp. | Humidity | Pressure | Rain* | Wind** | Luminosity | Snow |
|---|---|---|---|---|---|---|---|
| 1777302365 | 24.44° C | 57% | 1013.4 hPa | - | - | - | - |
| 1777301765 | 24.44° C | 59% | 1013.5 hPa | - | - | - | - |
| 1777301165 | 24.44° C | 60% | 1013.5 hPa | - | - | - | - |
| 1777300565 | 24.44° C | 65% | 1013.6 hPa | - | - | - | - |
| 1777299965 | 24.44° C | 66% | 1013.7 hPa | - | - | - | - |
| 1777299365 | 24.44° C | 66% | 1013.9 hPa | - | - | - | - |
| 1777298765 | 24.44° C | 66% | 1014 hPa | - | - | - | - |
| 1777298165 | 24.44° C | 65% | 1014.1 hPa | - | - | - | - |
| 1777297565 | 24.44° C | 65% | 1014.1 hPa | - | - | - | - |
| 1777296965 | 24.44° C | 65% | 1014.3 hPa | - | - | - | - |
| 1777296365 | 23.89° C | 66% | 1014.3 hPa | - | - | - | - |
| 1777295765 | 23.89° C | 67% | 1014.4 hPa | - | - | - | - |
| 1777295165 | 23.89° C | 71% | 1014.5 hPa | - | - | - | - |
| 1777294565 | 23.89° C | 69% | 1014.4 hPa | - | - | - | - |
| 1777293965 | 23.33° C | 72% | 1014.4 hPa | - | - | - | - |
| 1777293365 | 23.33° C | 68% | 1014.4 hPa | - | - | - | - |
| 1777292765 | 22.78° C | 69% | 1014.4 hPa | - | - | - | - |
| 1777292165 | 22.22° C | 70% | 1014.5 hPa | - | - | - | - |
| 1777291565 | 21.67° C | 73% | 1014.4 hPa | - | - | - | - |
| 1777290965 | 21.11° C | 73% | 1014.5 hPa | - | - | - | - |
| 1777290365 | 21.11° C | 75% | 1014.4 hPa | - | - | - | - |
| 1777289765 | 20.56° C | 77% | 1014.3 hPa | - | - | - | - |
| 1777289165 | 20.56° C | 79% | 1014.1 hPa | - | - | - | - |
| 1777288565 | 20.56° C | 80% | 1013.9 hPa | - | - | - | - |
| 1777287965 | 19.44° C | 84% | 1013.8 hPa | - | - | - | - |
* Rain since midnight (hover to see other rain measurements)
** Current wind speed in m/s (hover to see current wind gust speed)